Miscellaneous Local Product
Issued by NWS North Platte, NE

Home | Current Version | Previous Version | Text Only | Print | Product List | Glossary On
Versions: 1 2 3 4 5 6 7 8 9 10 11 12 13 14 15 16 17 18 19 20 21 22 23 24 25 26 27 28 29 30 31 32 33 34 35 36 37 38 39 40 41 42 43 44 45 46 47 48 49 50
000
AXUS43 KLBF 252210
MISLBF


WESTERN AND NORTH CENTRAL NEBRASKA HOURLY WEATHER ROUNDUP
NATIONAL WEATHER SERVICE NORTH PLATTE NE
500 PM CDT MON AUG 25 2014

***STATIONS NOT REPORTING VARIABLES SUCH AS SKY/WEATHER OR
PRESSURE ARE PROVIDED BY THE NEBRASKA DEPARTMENT OF
ROADS...RAWS...AND APRS NETWORKS...AND ARE NOT UNDER
NATIONAL WEATHER SERVICE QUALITY CONTROL***

...OBSERVATIONS IN AND NEAR THE EASTERN PANHANDLE OF NEBRASKA...

CITY           SKY/WX    TMP DP  RH WIND       PRES   REMARKS
PINE RIDGE     SUNNY     71  48  43 CALM      30.11F
CHADRON        SUNNY     77  42  28 VRB5      30.10F
ALLIANCE       SUNNY     76  46  34 CALM      30.12F
SIDNEY         SUNNY     79  52  38 E6        30.13F
WHITECLAY        N/A     73  46  38 W6          N/A
RUSHVILLE        N/A     79  41  25 S7          N/A
GORDON           N/A     79  46  31 S3          N/A
CRESCENT LAKE    N/A     77  50  38 N6          N/A
LISCO            N/A     82  46  28 CALM        N/A
BIG SPRINGS      N/A     78  60  54 E3          N/A
$$

...OBSERVATIONS IN NORTH CENTRAL NEBRASKA...

CITY           SKY/WX    TMP DP  RH WIND       PRES   REMARKS
VALENTINE      SUNNY     73  49  42 CALM      30.11S
THEDFORD       SUNNY     79  54  42 NE9       30.11S
AINSWORTH      SUNNY     73  51  47 N3        30.11S
O`NEILL        SUNNY     75  55  49 NW8       30.10S
ORD            SUNNY     77  55  46 NE6       30.07S
BROWNLEE         N/A     79  48  33 E3          N/A
SPRINGVIEW       N/A     75  53  45 NE3         N/A
ROSE             N/A     80  58  47 N7          N/A
NEWPORT          N/A     76  53  44 NE5         N/A
SARGENT          N/A     76  55  48 CALM        N/A
COMSTOCK         N/A     81  61  50 E6          N/A
CHAMBERS         N/A     77  53  43 MISG        N/A
EWING            N/A     75  61  62 CALM        N/A
$$

...OBSERVATIONS IN SOUTHWEST NEBRASKA AND FAR NORTHEAST COLORADO...

CITY           SKY/WX    TMP DP  RH WIND       PRES   REMARKS
WRAY             N/A     84  57  39 NE8       30.09F
IMPERIAL       SUNNY     80  56  43 E6        30.08F
OGALLALA       SUNNY     79  54  42 CALM      30.08F
NORTH PLATTE   SUNNY     79  57  46 SE8       30.08F
MCCOOK         SUNNY     80  62  54 E9        30.06S
LEXINGTON      MOSUNNY   76  59  55 NE10      30.07F
PAXTON           N/A     80  58  46 SE3         N/A
SUTHERLAND       N/A     82  57  41 CALM        N/A
BRADY            N/A     77  57  49 CALM        N/A
GOTHENBURG       N/A     76  53  44 E6          N/A
CALLAWAY         N/A     78  61  56 E5          N/A
$$

...SOME WEATHER OBSERVATIONS FROM AROUND THE REGION...

CITY           SKY/WX    TMP DP  RH WIND       PRES   REMARKS
DENVER         PTSUNNY   75  54  47 SE10G18   30.14S
LARAMIE        CLOUDY    66  51  58 SE13      30.23R
CHEYENNE       PTSUNNY   70  50  49 S14       30.17F
SCOTTSBLUFF    MOSUNNY   76  49  38 SE6       30.11F
RAPID CITY     SUNNY     71  48  43 NE9       30.12F
PIERRE         MOSUNNY   68  50  52 NW14      30.06S
WINNER         FAIR      75  49  39 N13       30.09R
SIOUX FALLS    PTSUNNY   74  55  51 W7        30.06R
OMAHA          MOSUNNY   77  62  59 N15       30.02
GRAND ISLAND   SUNNY     72  56  57 NE13      30.08F
KANSAS CITY    MOSUNNY   94  71  47 S7        29.95F HX 101
WICHITA        MOSUNNY  100  61  27 SE15      29.91F HX 101
HAYS           MOSUNNY   97  63  32 CALM      29.93F HX  98
LIBERAL        PTSUNNY   99  52  20 S15G26    29.94R HX  96
GOODLAND       SUNNY     83  60  45 SE10G21   30.07F
$$



USA.gov is the U.S. government's official web portal to all federal, state and local government web resources and services.